Regional Weather Roundup
Issued by NWS

Home | Current Version | Previous Version | Text Only | Print | Product List | Glossary Off
Versions: 1 2 3 4 5 6 7 8 9 10 11 12 13 14 15 16 17 18 19 20 21 22 23 24 25 26 27

000
ASUS45 KSLC 291610
RWRUT

UTAH REGIONAL WEATHER ROUNDUP
NATIONAL WEATHER SERVICE SALT LAKE CITY UT
1000 AM MDT THU SEP 29 2016

UTZ001>011-023>025-291700-

NORTHERN UTAH

CITY           SKY/WX    TMP DP  RH WIND       PRES   REMARKS
BRIGHAM CITY     N/A     66  51  59 CALM      30.25R
DUGWAY         MOSUNNY   69  47  46 S14G20      N/A
HILL AFB       PTSUNNY   69  49  49 SE7       30.26R
LOGAN          PTSUNNY   62  50  64 VRB3      30.24S
OGDEN          PTSUNNY   68  49  50 MISG      30.23S
PROVO AIRPORT  SUNNY     65  53  65 W7        30.28S
SALT LAKE CITY MOSUNNY   72  49  44 S15       30.22F
VERNAL         LGT RAIN  56  52  86 NW5       30.40R
WENDOVER       CLOUDY    59  50  72 NE7       30.23R
HEBER CITY     SUNNY     59  46  63 CALM      30.32R
WEST JORDAN    SUNNY     69  46  44 SE15      30.27R

$$

UTZ012>022-026-027-291700-

SOUTHERN/CENTRAL UTAH

CITY           SKY/WX    TMP DP  RH WIND       PRES   REMARKS
BLANDING       CLOUDY    56  53  91 NE6       30.51R
BRYCE CANYON   LGT RAIN  51  48  89 SE7       30.48R
CEDAR CITY     MOSUNNY   63  48  58 SW8       30.33S
DELTA          SUNNY     64  45  48 S8        30.29R
MILFORD        SUNNY     66  47  50 S16       30.29S
MOAB/CYNLANDS  CLOUDY    61  57  87 E9        30.35S
PRICE          CLOUDY    58  50  75 SE3       30.41R
ST GEORGE      PTSUNNY   68  54  60 NW5       30.26R

$$

REGIONAL REPORTS     COLORADO/ARIZONA

CITY           SKY/WX    TMP DP  RH WIND       PRES   REMARKS
CRAIG, CO      CLOUDY    54  40  59 CALM      30.45R
GRAND JUNCTION CLOUDY    60  54  80 NW7       30.38S
RIFLE          CLOUDY    62  43  49 N5        30.41S
MONTROSE       CLOUDY    61  43  51 CALM      30.45R
CORTEZ         CLOUDY    60  50  69 CALM      30.46R
PAGE, AZ       CLOUDY    64  58  80 N3        30.33S
GRAND CANYON   CLOUDY    57  52  83 CALM      30.43R
KINGMAN        MOSUNNY   77  53  43 SE8       30.21R
FLAGSTAFF      CLOUDY    55  52  89 W3        30.45S

$$

REGIONAL REPORTS    NEVADA/IDAHO/WYOMING

CITY           SKY/WX    TMP DP  RH WIND       PRES   REMARKS
LAS VEGAS, NV  MOSUNNY   79  49  34 CALM      30.15R
ELY            CLOUDY    58  44  60 S10       30.33S
ELKO           PTSUNNY   66  40  38 S12G17    30.21S HAZE
POCATELLO, ID  PTSUNNY   61  52  72 N3        30.20S
EVANSTON, WY   PTSUNNY   59  40  49 SW6       30.39S
ROCK SPRINGS   LGT RAIN  55  46  71 SW9       30.42R

$$




USA.gov is the U.S. government's official web portal to all federal, state and local government web resources and services.